Location: Alfortville
(48.8058°N, 2.4204°E)
Time: 04:29:35
(UTC+00:00)

AO-27 - Visible Passes

Search period start: 21 March 2023 00:00
Search period end: 31 March 2023 00:00
Orbit: 785 x 796 km, 98.9° (Epoch: 20 March)

Date Brightness Start Highest point End Pass type
(mag) Time Alt. Az. Time Alt. Az. Time Alt. Az.
21 Mar 8.2 18:29:30 10° SE 18:34:16 38° ENE 18:39:04 10° N visible
21 Mar 9.2 20:09:03 10° SSW 20:13:46 35° W 20:18:31 10° NNW visible
22 Mar 8.2 19:39:11 10° S 19:44:18 61° WSW 19:49:29 10° NNW visible
23 Mar 7.6 19:09:47 10° SSE 19:14:58 79° ENE 19:20:13 10° NNW visible
23 Mar 10.3 20:51:52 10° SW 20:55:04 16° W 20:58:17 10° NW visible
24 Mar 8.0 18:40:49 10° SE 18:45:46 46° ENE 18:50:45 10° N visible
24 Mar 9.5 20:20:59 10° SSW 20:25:25 28° W 20:29:54 10° NW visible
25 Mar 8.6 19:50:54 10° S 19:55:55 49° W 20:01:00 10° NNW visible
26 Mar 7.7 19:21:19 10° SSE 19:26:32 85° WSW 19:31:47 10° NNW visible
26 Mar 10.4 21:04:26 10° WSW 21:06:48 13° W 21:09:10 10° WNW visible
27 Mar 7.8 18:52:12 10° SE 18:57:17 57° ENE 19:02:24 10° N visible
27 Mar 9.8 20:33:01 10° SW 20:37:06 23° W 20:41:13 10° NW visible
28 Mar 9.0 20:02:40 10° SSW 20:07:32 39° W 20:12:27 10° NNW visible
29 Mar 8.0 19:32:55 10° S 19:38:06 69° WSW 19:43:21 10° NNW visible
29 Mar 10.7 21:18:08 10° W 21:18:33 10° W 21:18:58 10° W visible
30 Mar 7.7 19:03:38 10° SSE 19:08:49 70° ENE 19:14:01 10° N visible
30 Mar 10.1 20:45:11 10° SW 20:48:47 19° W 20:52:25 10° NW visible
